Location: Tucson
(32.2217°N, 110.9265°W)
Time: 10:00:39
(UTC-07:00)

Hubble Space Telescope - Visible Passes

Search period start: 18 June 2019 00:00
Search period end: 28 June 2019 00:00
Orbit: 536 x 540 km, 28.5° (Epoch: 18 June)

Date Brightness Start Highest point End Pass type
(mag) Time Alt. Az. Time Alt. Az. Time Alt. Az.
18 Jun 1.6 03:07:29 38° SE 03:07:29 38° SE 03:10:23 10° ESE visible
18 Jun 1.6 04:43:38 10° WSW 04:47:19 32° SSW 04:51:00 10° SE visible
19 Jun 2.3 02:57:49 26° ESE 02:57:49 26° ESE 02:59:49 10° ESE visible
19 Jun 1.8 04:33:13 10° WSW 04:36:44 27° SSW 04:40:15 10° SE visible
20 Jun 3.0 02:48:21 16° ESE 02:48:21 16° ESE 02:49:15 10° ESE visible
20 Jun 2.0 04:23:43 14° WSW 04:26:09 23° SSW 04:29:27 10° SE visible
21 Jun 2.2 04:14:30 18° SW 04:15:32 19° SSW 04:18:31 10° SSE visible
22 Jun 2.5 04:05:32 15° SSW 04:05:32 15° SSW 04:07:29 10° SSE visible
23 Jun 2.5 20:57:24 10° SSW 20:59:10 17° S 20:59:10 17° S visible
24 Jun 2.0 20:46:28 10° SSW 20:49:44 23° SSE 20:50:10 22° SSE visible
25 Jun 1.8 20:35:38 10° SW 20:39:09 27° SSE 20:40:55 20° SE visible
25 Jun 3.4 22:16:03 10° WSW 22:16:17 11° WSW 22:16:17 11° WSW visible
26 Jun 1.6 20:24:53 10° SW 20:28:33 31° SSE 20:31:26 15° ESE visible
26 Jun 2.8 22:05:29 10° WSW 22:06:47 19° WSW 22:06:47 19° WSW visible
27 Jun 1.5 20:14:11 10° SW 20:17:59 36° SSE 20:21:45 10° E visible
27 Jun 2.2 21:54:55 10° WSW 21:57:06 28° WSW 21:57:06 28° WSW visible
